Wind_Speed
11 11 11 11 11 11 11 11 11 12 11 11 11 11 11 10 9 9 9 11 13 12 12 11 11 12 12 12 13 13 13 13 14 14 15 16 17 18 19 20 21 21 22 23 24 23 22 22 21 21 21 19 17 17 17 17 17 19 21 22 22 21 20 19 20 19 19 18 17 16 17 19 19 18
11 11 11 11 12 12 12 13 13 13 12 12 12 12 12 12 12 10 9 10 12 11 11 10 9 10 11 11 12 13 13 13 14 15 16 17 18 19 19 19 20 20 21 23 23 23 22 22 20 19 20 19 17 17 17 17 17 18 20 22 21 21 20 19 19 19 19 18 17 16 15 16 18 18
12 12 11 11 12 13 13 14 13 13 13 12 12 12 13 13 13 12 10 10 11 10 10 11 10 10 11 11 12 13 14 14 15 16 17 17 18 19 19 19 19 19 21 22 22 22 22 21 19 18 18 17 16 16 17 17 17 18 20 21 21 21 21 19 19 19 19 18 18 17 15 14 15 16
12 12 12 12 13 13 14 14 14 14 14 13 13 13 13 13 13 13 11 10 11 11 9 10 11 11 11 11 12 13 14 15 16 17 18 18 19 18 18 17 17 19 20 22 22 21 21 20 19 17 17 16 16 16 16 16 16 17 19 20 21 21 21 20 19 19 19 19 18 17 16 15 13 13
12 11 12 13 13 12 12 13 13 13 13 13 13 13 13 14 13 13 12 10 11 12 11 10 9 10 11 12 12 12 13 15 16 18 19 19 19 18 17 16 17 19 20 21 21 21 21 20 19 17 16 16 15 15 15 15 16 16 17 19 19 19 20 21 20 19 18 19 18 17 16 15 14 12
10 10 11 12 12 11 11 12 12 12 12 12 12 13 13 14 14 13 12 11 11 12 12 11 11 11 12 13 13 13 14 15 16 17 18 19 18 17 16 16 17 19 20 21 22 22 21 20 19 17 16 15 15 15 15 15 15 16 17 18 18 18 18 19 20 19 18 18 18 18 16 15 14 13
9 9 9 10 11 11 10 11 11 12 12 12 13 13 13 13 14 13 12 12 12 11 11 12 12 12 13 13 14 14 15 16 16 17 17 18 17 16 15 16 18 20 21 22 22 22 20 19 19 17 16 15 15 15 15 15 15 16 17 18 18 17 16 17 18 19 19 18 17 18 17 15 14 13
9 9 9 10 11 11 10 11 11 12 12 12 12 13 13 13 13 13 12 12 12 11 11 12 12 13 13 14 15 15 15 16 17 17 17 17 17 16 16 17 19 21 22 23 23 21 20 19 18 18 16 14 14 14 13 14 14 15 16 17 18 17 16 16 17 17 19 19 17 16 17 16 14 12
10 10 10 11 11 11 11 11 11 12 12 12 12 12 13 13 13 13 13 12 12 11 11 12 13 14 14 15 16 16 16 16 16 16 17 17 16 16 16 18 20 21 22 23 23 21 20 19 18 18 16 14 13 12 12 12 13 14 15 16 16 17 16 16 16 16 17 18 18 16 16 16 14 12
12 12 12 12 12 12 11 11 12 12 12 12 12 13 13 13 13 13 13 12 12 12 12 12 14 15 15 15 16 17 17 16 15 14 15 16 16 16 16 18 20 21 21 21 22 21 20 18 17 17 16 14 13 12 11 11 12 13 14 15 15 16 16 16 16 16 16 17 17 17 15 14 14 12
14 13 13 13 13 13 12 12 13 13 13 13 13 14 14 14 14 14 13 13 12 12 13 14 15 15 16 16 16 17 17 16 16 15 14 15 16 16 16 17 18 20 20 21 21 21 20 18 17 16 15 14 13 12 11 11 11 12 13 14 15 16 16 16 15 16 16 16 16 16 15 13 12 11
15 15 15 15 15 15 14 14 14 14 14 14 14 15 15 14 14 15 15 15 15 14 15 15 15 15 15 16 16 17 17 17 17 16 16 15 16 17 17 17 18 19 20 20 20 20 19 18 17 16 15 14 13 12 12 12 12 13 13 14 15 15 15 14 14 15 15 15 15 15 14 13 11 9
17 17 16 16 16 17 17 17 16 16 16 15 15 16 16 16 16 16 16 16 16 16 16 17 16 16 16 16 17 17 18 18 18 18 17 16 16 17 18 18 18 20 20 20 20 19 18 17 16 15 14 14 13 12 12 13 13 14 14 15 14 14 13 13 14 14 14 14 14 14 13 12 11 10
18 18 18 18 18 18 18 18 18 18 18 17 16 17 17 17 17 17 17 17 18 18 18 18 17 17 17 18 18 18 18 19 19 19 18 17 16 16 18 18 19 20 20 19 19 18 17 15 14 13 13 13 13 13 13 13 13 13 13 14 13 13 13 14 14 14 14 14 15 15 14 12 12 11
20 20 19 19 20 20 20 20 20 20 19 18 18 18 18 18 18 18 18 18 19 19 19 19 19 18 18 19 20 20 20 19 20 20 19 18 17 17 17 17 18 18 18 18 17 16 15 13 12 12 12 12 13 13 13 13 13 13 12 12 12 12 13 14 14 14 14 14 15 16 16 14 13 12
22 22 22 22 22 22 21 21 22 22 22 21 20 20 19 19 19 20 20 19 19 19 20 20 20 20 19 20 21 22 21 20 20 20 20 19 19 18 18 18 18 18 17 16 14 12 12 12 11 11 11 11 12 13 13 14 14 13 13 12 12 12 13 13 13 14 14 14 13 14 15 15 15 14
23 24 24 24 24 24 24 23 23 23 24 23 22 22 21 21 21 21 21 21 21 21 21 21 21 21 21 22 23 24 23 22 20 20 20 19 19 20 20 19 18 17 16 14 11 9 10 10 10 10 11 11 12 13 14 14 14 14 14 14 14 14 14 14 14 15 15 15 14 14 15 15 15 15
24 25 26 27 27 27 27 26 25 24 24 25 24 24 23 23 23 23 22 23 23 23 23 22 22 22 22 22 24 24 24 23 22 20 19 19 19 20 20 19 18 16 14 12 10 7 9 10 10 11 12 12 12 13 14 14 14 14 14 15 15 16 16 16 16 16 16 16 16 16 17 17 17 16
28 28 29 29 29 30 30 28 27 26 26 26 25 25 25 24 24 24 24 24 24 24 24 23 23 23 23 23 24 24 24 23 22 21 20 19 19 20 20 19 18 15 13 11 9 6 8 10 11 12 13 14 14 15 15 15 15 15 16 16 17 17 18 18 18 18 18 18 18 18 19 19 19 19
30 31 32 33 33 33 32 29 28 27 26 26 27 26 25 25 25 25 25 25 25 25 25 25 25 24 24 25 25 25 24 23 22 21 20 19 19 20 20 19 18 16 13 11 9 7 7 10 11 12 13 15 16 17 17 18 18 18 18 18 19 19 19 19 19 19 19 19 19 19 20 21 21 21
33 33 34 35 36 36 35 31 29 28 28 27 27 27 26 25 25 25 25 25 26 26 26 26 26 25 25 25 25 25 24 23 22 21 20 20 20 20 20 19 18 16 13 10 9 8 9 10 12 12 13 15 16 17 18 19 19 20 20 20 21 21 21 21 21 21 20 20 20 20 20 21 22 23
36 36 36 38 38 38 38 36 33 31 31 30 28 27 26 25 24 24 24 25 26 26 27 27 26 26 26 26 26 25 24 23 22 21 21 21 21 20 20 19 18 15 12 10 9 10 10 11 12 13 15 16 17 17 18 18 19 20 20 21 21 22 22 22 22 22 21 21 20 20 20 21 21 22
36 37 37 38 38 39 39 38 36 34 34 33 30 28 27 25 24 24 24 25 26 27 27 27 27 27 27 26 26 25 24 23 22 21 22 22 21 20 19 18 16 14 12 11 10 11 11 12 13 14 16 17 18 18 19 19 19 20 20 21 21 22 22 22 22 23 23 22 22 22 21 21 21 22
35 36 37 37 37 37 37 37 37 37 35 34 33 31 28 26 25 23 23 24 26 28 28 28 29 29 28 27 27 26 25 23 23 22 22 21 20 19 19 17 15 14 12 11 11 12 12 13 14 16 17 19 20 20 21 21 21 21 21 21 21 22 22 22 23 23 24 24 24 23 23 23 22 22
36 37 38 39 37 35 34 35 37 38 37 36 35 33 30 28 26 24 23 23 25 27 28 29 30 30 30 29 28 26 25 24 23 22 21 20 19 18 18 17 15 14 13 13 13 13 14 15 16 18 19 20 21 22 22 23 23 23 23 23 23 22 22 22 23 23 23 24 25 25 24 24 24 24
34 34 35 36 36 35 34 35 36 36 35 35 35 34 33 33 32 30 27 24 25 28 29 30 31 31 30 30 29 27 25 24 23 21 20 18 18 18 18 17 16 15 15 14 14 15 16 17 18 20 21 22 22 22 23 24 25 25 25 24 24 24 24 24 23 23 23 24 24 24 25 25 25 25
30 29 29 30 31 33 34 32 30 30 31 32 33 34 36 37 37 35 33 31 30 31 31 31 30 29 30 30 29 27 25 24 22 21 20 19 18 18 18 17 16 16 16 16 16 17 18 19 20 21 22 23 24 24 24 24 25 26 26 26 26 26 26 26 25 25 25 25 25 25 25 25 25 26
27 26 27 26 25 26 29 27 23 25 29 33 34 36 38 38 37 35 35 35 34 33 35 34 31 29 28 28 27 26 25 25 24 22 20 19 18 18 18 17 17 17 17 17 18 19 20 22 23 24 25 25 26 26 26 26 26 26 27 27 27 27 27 27 27 27 27 27 27 27 27 26 26 27
27 26 25 23 19 19 20 20 22 25 28 31 33 34 36 37 36 34 34 36 34 34 36 34 31 30 29 27 26 26 26 26 24 20 18 17 17 17 18 18 18 18 18 19 20 21 22 23 25 26 27 28 28 28 28 29 29 28 28 28 28 29 29 29 29 29 29 29 30 30 30 30 30 30
29 28 26 23 18 15 13 15 20 24 25 25 25 26 28 30 31 32 33 34 34 34 32 27 23 24 24 23 23 24 24 24 22 18 15 16 16 17 17 18 19 19 20 21 22 23 24 24 26 27 28 29 30 30 30 31 31 31 31 31 31 30 30 30 31 31 31 31 32 33 33 34 34 35
29 28 26 24 21 17 15 16 19 22 23 23 23 23 23 25 27 29 31 31 32 32 30 25 19 16 15 16 18 18 19 19 17 14 15 17 17 17 18 19 20 20 21 22 23 24 25 26 27 28 29 30 31 31 32 33 33 33 33 34 34 34 33 32 33 33 33 33 33 34 35 35 36 36
28 27 25 23 21 19 17 17 19 21 23 23 23 22 22 22 24 26 27 28 28 27 26 24 19 13 11 12 13 13 14 15 14 15 16 18 19 19 20 20 21 22 22 23 24 25 26 27 28 29 30 30 31 32 33 34 35 35 36 36 36 36 36 35 35 35 35 35 35 35 35 36 37 37
24 25 24 23 22 20 19 19 20 21 22 23 23 22 22 22 24 25 25 25 25 24 23 21 17 13 11 11 12 13 14 15 16 17 18 19 20 21 22 22 23 23 23 24 25 26 27 28 29 30 31 32 33 33 34 35 36 37 37 38 38 38 37 37 37 37 37 38 37 37 37 38 39 40
21 22 22 21 21 20 20 19 21 23 23 23 23 23 23 23 23 24 24 22 20 18 17 16 14 13 13 14 14 15 16 17 18 19 19 20 21 22 23 23 24 24 25 26 26 27 28 29 31 32 33 34 35 35 36 37 38 39 39 40 40 39 39 39 39 39 40 41 41 41 41 42 43 44
18 19 19 19 18 18 19 18 19 20 21 22 23 24 24 24 23 22 20 19 16 14 14 14 14 15 17 17 17 18 18 19 20 21 21 22 23 23 25 25 26 27 27 28 29 30 31 31 32 33 33 34 36 37 37 39 40 41 41 41 41 41 41 41 41 42 42 43 44 45 44 44 45 46
16 16 16 15 15 15 16 16 16 16 16 16 18 19 20 20 20 19 17 17 16 16 16 16 17 18 19 19 20 20 21 22 22 23 24 24 25 26 27 28 28 30 30 31 32 33 33 34 34 35 35 35 36 37 37 39 41 42 42 42 42 42 43 42 42 42 43 44 45 45 45 45 45 45
16 16 15 15 14 14 15 15 15 15 14 14 14 15 15 16 16 15 16 16 17 19 21 21 22 22 23 23 24 24 24 24 25 25 26 26 27 28 29 30 31 32 33 34 34 35 36 36 37 37 38 38 38 38 38 39 41 43 43 43 42 43 43 43 43 43 43 44 45 45 46 46 46 45
18 18 17 17 17 17 16 16 16 16 16 15 15 15 16 16 16 17 17 18 19 21 23 25 26 27 27 27 27 27 27 26 27 27 28 28 29 30 31 32 33 34 35 36 36 37 38 39 39 40 41 41 41 41 40 40 40 42 44 44 44 44 44 45 45 44 44 44 45 45 46 46 46 46
19 18 19 19 19 19 18 18 18 18 18 18 19 19 19 19 20 20 21 21 22 24 25 25 26 26 27 27 28 28 28 28 29 29 30 31 31 32 32 33 34 35 36 37 38 38 39 40 41 41 42 42 43 42 42 42 41 42 43 45 46 46 46 46 46 46 46 45 45 45 45 45 46 46
20 20 19 20 20 20 20 20 20 20 21 21 22 22 22 23 23 24 24 24 25 26 26 27 27 27 27 27 28 29 30 30 31 31 32 33 33 33 34 34 35 36 37 38 39 40 40 41 41 42 42 42 43 43 43 43 43 42 43 44 45 46 46 46 46 47 47 47 46 46 45 45 45 45
22 21 21 21 21 21 21 22 22 22 22 23 24 24 25 25 26 26 26 27 28 28 29 29 29 29 29 29 29 30 31 32 32 33 34 34 34 35 36 37 37 38 39 39 40 40 41 41 42 42 42 43 43 43 43 43 43 42 42 42 42 43 43 44 45 45 46 47 47 47 47 47 46 46
23 23 22 22 22 22 23 23 23 24 24 24 25 25 26 26 27 27 27 27 28 29 29 29 30 30 30 30 30 31 32 32 33 34 35 35 36 37 38 38 39 40 40 40 41 41 41 42 42 42 43 43 43 43 43 42 42 42 42 42 42 43 43 44 44 45 46 46 47 48 48 49 49 49
25 25 24 24 24 24 23 23 24 24 25 25 26 26 26 27 27 27 28 28 28 29 29 29 30 30 31 32 32 33 33 34 34 35 35 36 36 37 38 38 39 40 40 40 40 40 41 41 41 42 42 42 42 43 43 43 43 43 43 43 43 43 43 44 44 45 45 45 46 47 48 49 49 50
27 26 26 26 26 25 25 25 25 25 25 26 26 27 27 28 28 28 29 29 29 30 30 31 31 32 32 33 34 34 34 35 35 35 35 36 37 37 38 38 38 39 39 39 39 40 40 40 41 41 41 42 42 42 43 43 43 43 43 43 43 43 43 43 43 44 45 46 46 47 48 48 49 50
29 29 29 28 28 28 27 27 27 27 27 27 27 28 28 29 29 29 30 30 30 31 31 32 32 33 33 34 34 34 35 35 36 36 36 36 36 37 37 37 38 38 38 39 39 39 39 40 40 40 40 41 41 41 42 42 42 42 42 43 43 43 43 43 44 44 45 46 47 47 47 48 48 48
Wind_Direction
250 250 249 254 258 260 262 263 264 266 267 268 269 271 274 274 274 278 287 292 295 299 300 300 302 304 306 308 310 315 319 321 323 324 324 323 321 322 326 331 336 340 344 350 352 352 351 353 355 353 354 359 4 5 4 4 6 5 6 10 12 16 20 21 22 27 32 35 36 35 36 39 42 44
255 254 251 250 254 258 261 263 267 269 269 271 273 276 279 280 282 283 284 289 294 298 301 301 304 305 306 309 312 316 320 321 323 323 321 320 319 322 327 333 337 340 345 349 350 349 350 353 355 354 356 3 8 7 3 2 4 5 5 8 11 13 18 22 23 25 28 32 35 36 36 38 42 45
259 259 256 253 253 256 259 262 265 267 268 270 274 277 279 281 284 285 283 286 291 296 300 300 304 307 307 311 315 317 321 322 321 320 319 318 319 323 329 333 337 341 344 346 347 348 350 352 354 355 359 7 11 7 2 0 3 6 6 7 8 9 14 20 23 25 26 29 33 35 36 37 40 44
261 261 260 258 257 258 261 264 267 269 272 276 277 277 279 281 282 282 281 283 288 292 295 297 303 309 310 313 316 318 320 320 319 319 319 319 322 327 332 334 336 340 341 342 345 348 351 353 352 353 360 8 11 7 2 0 3 7 8 7 6 6 10 17 21 24 26 27 29 32 35 35 36 40
261 262 261 263 265 266 268 271 273 274 274 275 276 276 279 281 280 281 282 282 285 289 292 294 301 307 308 310 313 315 316 318 318 318 319 321 326 330 332 333 335 337 339 341 346 349 351 352 351 351 357 5 8 6 2 1 4 7 9 8 6 4 7 14 19 22 25 26 27 28 32 34 33 34
267 268 266 266 270 271 272 273 273 273 272 270 271 271 272 274 275 278 282 282 280 286 294 302 306 306 305 306 310 312 314 315 315 315 317 321 326 331 332 334 335 336 339 343 347 348 348 350 350 350 353 359 2 2 2 2 3 5 7 6 5 3 5 13 18 20 22 25 26 25 26 30 32 32
272 273 270 268 270 272 271 270 268 266 266 266 266 269 269 270 272 275 278 279 279 282 289 297 301 301 301 303 307 310 311 312 312 314 318 322 326 331 334 334 334 336 340 342 343 344 344 346 348 349 350 354 358 358 359 0 1 2 2 2 3 2 2 9 15 17 18 20 24 25 24 24 27 31
273 274 273 271 272 274 272 271 269 266 264 264 263 267 270 272 274 275 277 281 286 286 284 286 289 293 296 300 302 304 306 309 313 316 319 322 326 330 334 333 332 335 337 337 339 340 341 342 345 348 348 350 353 355 356 358 360 0 358 357 359 359 359 2 7 11 12 13 16 21 23 22 22 27
267 266 268 270 272 274 274 273 272 269 266 265 263 266 272 274 275 277 281 286 289 287 284 283 285 289 294 297 298 299 301 305 312 316 318 320 322 326 329 329 328 330 332 333 336 338 338 339 342 346 348 348 348 349 352 356 357 356 354 352 353 354 354 355 359 2 6 6 7 11 17 20 21 24
265 265 266 268 270 272 274 274 274 273 272 271 270 270 272 273 273 275 279 284 285 286 287 286 286 288 290 292 293 295 298 303 308 312 314 316 317 320 323 323 321 325 329 331 334 337 336 336 338 343 346 347 345 343 346 350 352 350 348 345 344 344 345 347 349 353 357 359 360 1 6 14 19 23
268 268 269 270 271 272 272 271 271 271 271 272 274 273 273 273 274 276 277 279 280 281 283 285 287 288 289 290 291 293 298 304 308 310 312 314 314 314 316 318 318 322 328 330 332 334 334 333 335 338 342 346 345 343 342 346 347 345 342 339 337 336 338 341 344 347 351 354 353 352 355 2 10 17
270 271 271 272 274 274 272 272 272 272 270 270 271 272 272 274 275 276 277 277 278 279 281 285 287 288 289 290 292 295 300 305 308 309 312 312 312 312 314 317 320 323 327 328 328 329 329 329 332 335 338 343 345 345 345 346 345 344 341 338 336 336 339 343 346 349 352 354 352 349 347 349 354 0
273 273 271 271 271 272 271 270 271 272 271 270 270 269 271 272 273 274 276 277 278 280 284 287 288 288 288 287 290 295 300 304 305 305 307 309 311 313 314 317 322 324 326 327 326 325 325 325 328 330 334 339 343 345 346 346 344 342 341 341 341 344 347 350 351 351 354 355 354 351 346 340 338 339
272 272 271 270 269 270 270 269 269 270 271 271 269 267 267 268 268 270 272 275 278 281 284 286 286 285 284 285 289 295 299 302 304 304 306 307 309 311 311 314 320 323 324 325 323 322 323 323 325 329 334 338 341 343 343 343 341 340 339 340 342 345 347 349 349 348 349 350 350 349 347 342 335 331
270 270 269 268 267 267 268 270 270 269 269 270 268 265 264 265 266 268 270 272 276 280 283 284 283 282 282 284 289 295 299 301 303 305 306 307 308 309 309 310 315 318 320 320 319 319 322 323 326 331 335 338 340 342 342 342 342 342 341 340 340 341 342 342 343 343 342 344 346 343 340 339 336 332
268 268 268 267 266 265 265 266 269 269 269 268 266 265 264 264 265 267 269 271 274 279 282 283 284 283 283 286 290 294 297 300 303 304 305 306 308 310 309 308 310 312 314 314 313 316 321 324 328 332 335 339 341 341 341 342 344 346 346 346 345 344 344 344 344 344 342 343 343 339 333 331 330 330
268 268 269 268 267 265 264 262 263 266 267 267 265 264 264 265 266 268 270 273 275 278 280 282 284 285 286 287 290 292 295 297 300 301 302 303 306 309 310 310 309 307 307 306 304 309 319 323 328 332 333 336 339 338 338 339 341 342 342 343 344 343 343 343 343 343 343 342 341 337 333 330 328 327
271 270 269 268 267 266 264 263 262 262 264 264 264 263 263 263 264 266 269 272 273 274 276 279 281 283 285 286 288 290 293 295 296 298 298 299 303 307 310 312 310 304 299 294 289 300 320 323 325 328 328 329 331 332 331 332 333 332 332 333 334 334 334 334 334 334 335 334 333 331 328 327 326 326
272 271 269 268 266 264 261 259 259 259 261 262 263 263 263 263 264 265 267 269 270 272 274 277 280 282 284 285 287 290 292 292 292 293 294 296 300 304 306 309 308 301 291 283 279 293 319 318 317 320 322 324 326 327 327 328 328 327 326 326 326 327 326 326 326 325 325 325 324 323 321 320 321 322
269 268 268 266 265 263 262 260 257 257 258 260 261 262 263 263 264 266 268 270 271 273 275 278 280 281 283 284 287 290 291 290 288 288 289 292 296 299 300 302 302 295 282 275 276 290 308 310 310 315 320 322 324 325 327 328 328 328 327 325 324 323 323 322 321 321 320 320 319 318 317 316 316 316
270 267 266 265 264 264 265 265 264 262 259 258 259 260 261 262 264 266 268 271 273 275 276 278 279 281 283 285 287 289 291 289 285 283 283 286 290 293 294 297 296 287 273 268 274 285 297 304 307 312 318 320 322 325 327 328 328 328 326 325 324 323 322 321 319 318 318 317 317 316 314 313 312 312
273 269 267 266 264 264 263 262 261 262 261 259 258 258 260 261 263 265 268 271 273 275 276 277 279 281 283 285 287 288 289 287 283 280 280 282 285 288 290 292 289 275 261 262 271 280 290 299 305 311 317 319 320 323 324 325 325 324 324 323 322 321 320 318 317 317 316 315 314 313 312 311 310 309
273 272 270 269 267 266 264 260 255 255 258 258 257 257 258 260 263 265 268 272 274 275 276 277 279 280 281 283 285 287 286 283 280 278 278 280 282 283 285 286 279 263 253 259 271 281 289 297 303 310 314 317 319 320 321 321 322 322 322 322 321 320 319 318 317 316 315 314 313 312 312 311 309 308
275 275 274 271 269 267 265 260 253 249 250 253 253 254 255 258 262 267 271 273 275 276 277 278 278 279 280 281 282 284 282 279 277 275 275 276 276 278 281 278 267 255 254 263 273 281 289 295 300 306 310 313 316 318 318 319 320 320 321 322 322 321 320 319 318 317 316 315 314 313 313 312 310 308
281 278 274 271 269 266 264 260 254 248 245 246 247 250 254 259 262 266 270 275 277 277 276 276 276 277 278 277 278 279 278 276 274 273 272 272 273 276 276 268 257 253 260 268 274 280 287 294 300 305 308 310 312 315 315 316 318 319 321 322 322 322 321 319 319 318 316 315 314 314 313 312 311 309
283 281 274 269 268 267 265 262 257 251 247 245 246 249 256 261 262 261 263 271 277 277 274 273 273 273 274 274 274 273 273 272 272 270 268 270 273 274 270 262 256 259 266 271 277 283 290 295 299 303 306 308 309 311 312 314 316 318 320 321 322 321 321 320 319 317 316 315 313 313 313 312 311 309
282 280 274 271 271 272 273 270 264 258 253 250 250 252 256 260 261 260 261 264 270 274 273 269 266 265 267 268 268 268 269 270 268 265 266 270 271 269 264 261 261 265 270 276 282 287 291 295 297 300 303 305 307 308 310 312 314 316 317 319 320 320 320 320 318 317 315 314 313 312 312 311 310 309
277 276 276 280 282 283 281 272 260 255 253 251 251 252 253 255 257 260 261 260 264 273 275 269 264 262 262 263 264 264 262 259 256 256 260 265 267 263 260 261 264 268 273 278 283 287 290 294 297 301 303 305 306 308 309 310 312 313 315 316 318 318 318 317 316 315 314 313 312 311 311 310 309 308
273 273 279 288 297 301 289 264 243 245 251 252 254 254 250 249 250 254 258 258 261 270 273 266 258 255 254 254 255 256 255 254 254 256 260 262 261 259 258 260 264 269 273 278 282 287 291 295 298 301 303 305 306 307 308 309 310 311 312 313 314 315 315 315 314 313 313 313 312 312 311 311 310 309
274 274 277 283 289 295 287 259 245 251 258 261 263 261 255 251 249 251 256 259 263 271 278 275 263 256 258 258 257 257 259 258 257 259 262 262 260 259 260 262 265 268 272 277 282 287 291 295 298 300 302 304 305 306 307 308 309 310 311 311 312 312 312 312 312 311 311 311 311 311 311 311 310 310
279 280 280 281 281 278 272 263 259 261 265 265 264 262 260 257 253 254 259 263 268 277 286 286 275 262 259 258 255 255 256 254 250 251 258 262 262 262 263 264 266 269 273 277 282 287 290 294 297 298 300 302 304 305 306 307 308 309 309 309 309 309 310 310 310 309 309 309 309 308 308 308 308 307
283 285 284 282 280 277 271 267 265 264 264 264 262 259 257 255 254 256 261 267 274 282 284 278 267 255 250 249 248 248 251 252 253 256 258 260 261 262 264 265 267 270 274 278 282 286 290 293 296 298 299 301 303 304 305 306 306 307 307 307 307 308 308 308 308 307 307 306 306 306 305 305 304 303
284 286 286 283 281 278 275 271 268 267 265 262 259 257 255 255 257 262 267 272 279 281 275 267 262 263 264 262 260 260 259 259 260 258 257 258 260 262 264 267 269 273 277 281 285 288 291 294 296 297 299 300 301 303 303 304 304 304 304 305 305 305 306 306 305 305 305 304 304 304 303 302 302 301
281 282 284 285 284 283 280 276 273 271 269 266 262 260 260 261 263 266 269 273 274 270 264 261 264 269 271 268 266 266 264 263 261 260 259 260 262 265 269 273 276 280 283 285 288 290 292 294 296 297 299 300 301 302 302 302 302 302 302 302 302 302 302 302 302 302 302 302 302 302 302 302 302 302
281 280 280 282 284 286 286 285 282 278 276 273 267 263 262 262 262 262 262 262 261 260 262 265 268 269 268 266 265 265 265 265 266 266 267 269 271 274 277 280 283 286 287 289 291 292 293 294 295 296 297 298 299 300 300 300 299 299 299 300 300 300 300 299 299 300 300 300 300 300 300 300 299 299
287 285 283 283 283 284 286 288 287 284 280 274 268 263 261 260 258 256 253 253 255 259 262 264 266 268 269 270 269 269 269 270 271 273 274 276 278 281 283 285 287 288 290 291 292 293 293 293 293 294 294 294 295 295 296 296 296 296 297 297 297 297 297 297 298 298 298 298 298 297 297 297 296 296
287 286 285 284 283 280 280 281 281 278 276 272 267 265 263 260 258 256 254 255 256 256 256 257 259 263 267 270 271 271 271 272 273 275 277 279 281 283 285 286 287 288 290 291 292 292 293 293 293 293 293 293 293 293 293 294 294 295 295 295 295 295 295 296 296 295 295 294 294 295 295 295 295 295
283 282 281 280 279 277 276 275 274 273 272 269 265 263 261 261 262 261 260 259 256 254 253 253 254 257 261 265 268 270 273 275 276 278 279 280 282 283 284 286 287 288 289 290 290 291 291 291 292 292 292 292 292 292 292 292 292 292 293 293 293 293 293 292 292 292 292 292 293 294 295 295 296 296
285 282 280 279 278 276 274 272 270 269 268 266 264 263 262 263 263 262 262 262 261 259 258 258 258 260 264 267 270 273 275 276 278 279 280 281 282 283 284 286 287 287 288 288 289 289 290 290 290 290 291 291 291 291 291 291 291 291 291 291 292 292 292 293 293 294 294 295 295 296 296 296 296 296
286 284 282 280 277 276 274 271 268 265 263 261 261 261 262 263 264 264 265 267 267 268 268 268 268 268 270 271 273 275 276 278 279 281 282 283 284 285 285 286 286 286 287 287 287 288 288 289 289 289 289 290 290 291 291 291 291 291 291 291 292 292 293 294 295 295 296 297 297 296 296 296 295 295
283 283 281 278 276 275 273 272 270 268 265 262 261 261 261 261 263 264 265 267 268 269 271 272 273 274 274 274 275 276 277 278 279 280 281 282 283 284 284 284 285 285 285 286 287 287 288 288 289 289 290 290 291 291 292 292 292 292 292 292 292 292 293 294 295 296 296 297 297 297 297 297 297 297
282 281 279 278 276 273 272 271 271 270 269 268 267 266 265 265 266 266 267 268 268 269 271 272 273 274 275 276 277 277 278 279 280 280 281 281 282 283 283 284 284 285 285 286 287 287 288 289 290 290 291 292 292 293 293 293 293 293 292 292 292 293 294 295 296 296 296 297 297 297 297 298 299 299
282 281 280 279 277 275 273 271 270 270 270 270 270 270 270 270 270 270 271 271 272 273 274 274 275 275 276 277 277 278 279 279 280 281 282 282 283 283 284 284 285 285 286 287 287 288 289 290 291 292 292 293 293 293 293 292 292 292 292 292 293 294 295 296 296 297 297 297 297 297 298 299 300 300
281 280 280 279 278 276 275 274 272 271 270 270 269 270 270 270 271 271 272 272 273 273 274 275 276 276 277 277 278 279 279 280 281 282 283 283 284 284 284 285 285 286 286 287 288 289 290 290 291 291 291 291 291 291 291 291 292 292 293 293 294 295 295 296 296 297 297 298 298 299 300 300 300 300
278 277 277 277 277 276 276 275 275 274 273 272 272 271 271 271 272 272 273 273 274 274 275 276 276 277 277 278 279 280 281 281 282 283 283 284 284 284 285 285 286 286 287 287 288 289 289 290 290 290 290 290 291 291 292 293 293 294 294 295 295 296 296 296 296 297 297 298 298 299 299 299 299 299
Height
3248 3248 3248 3248 3248 3248 3248 3248 3248 3248 3248 3248 3247 3247 3247 3247 3246 3246 3245 3244 3243 3243 3242 3241 3241 3240 3239 3238 3237 3236 3236 3235 3234 3233 3232 3230 3229 3228 3227 3226 3225 3223 3221 3220 3218 3217 3215 3213 3212 3210 3208 3207 3205 3203 3202 3200 3199 3198 3196 3194 3193 3191 3189 3187 3185 3183 3181 3180 3179 3178 3177 3176 3175 3174
3247 3247 3247 3247 3247 3247 3247 3247 3247 3247 3247 3247 3247 3247 3246 3246 3246 3245 3245 3244 3243 3242 3242 3241 3241 3240 3239 3238 3237 3236 3236 3235 3233 3232 3231 3230 3228 3227 3226 3225 3224 3223 3221 3220 3218 3216 3215 3213 3212 3210 3208 3207 3205 3204 3202 3201 3200 3198 3197 3195 3194 3192 3191 3189 3187 3185 3183 3181 3180 3179 3178 3178 3177 3176
3246 3246 3246 3246 3246 3246 3246 3246 3246 3246 3246 3246 3246 3246 3245 3245 3245 3244 3244 3243 3242 3242 3242 3241 3240 3239 3239 3238 3237 3236 3235 3234 3233 3231 3230 3229 3228 3227 3226 3224 3223 3222 3221 3219 3218 3216 3215 3213 3212 3210 3209 3207 3206 3204 3203 3201 3200 3199 3198 3196 3195 3194 3192 3190 3189 3187 3185 3183 3182 3180 3180 3179 3178 3178
3245 3245 3245 3245 3245 3245 3245 3245 3245 3245 3245 3245 3245 3244 3244 3244 3244 3243 3243 3243 3242 3241 3241 3240 3239 3239 3238 3238 3237 3236 3235 3233 3232 3231 3229 3228 3227 3226 3225 3224 3223 3222 3221 3219 3218 3216 3215 3213 3212 3210 3209 3207 3206 3205 3203 3202 3201 3199 3198 3197 3196 3195 3193 3192 3190 3188 3187 3185 3183 3182 3181 3180 3180 3179
3243 3244 3244 3244 3244 3244 3244 3244 3244 3244 3244 3244 3243 3243 3243 3243 3242 3242 3242 3242 3241 3240 3240 3239 3239 3238 3237 3237 3236 3236 3234 3233 3232 3230 3229 3227 3227 3226 3225 3224 3222 3221 3220 3219 3218 3216 3215 3213 3212 3210 3209 3207 3206 3205 3204 3202 3201 3200 3199 3197 3196 3195 3194 3193 3191 3190 3189 3187 3185 3184 3182 3181 3181 3180
3242 3243 3243 3243 3243 3243 3243 3243 3243 3243 3242 3242 3242 3242 3241 3241 3241 3241 3241 3241 3240 3239 3239 3238 3238 3237 3237 3236 3235 3235 3234 3233 3231 3230 3228 3227 3226 3225 3224 3223 3222 3221 3220 3218 3217 3216 3214 3213 3211 3210 3209 3208 3207 3205 3204 3203 3202 3200 3199 3198 3197 3196 3195 3194 3192 3191 3190 3189 3187 3186 3184 3183 3182 3181
3242 3242 3242 3241 3241 3241 3241 3241 3241 3241 3241 3241 3240 3240 3240 3240 3239 3239 3239 3239 3239 3238 3238 3237 3237 3236 3236 3235 3234 3234 3233 3232 3230 3229 3228 3226 3225 3224 3224 3222 3221 3220 3219 3218 3217 3215 3214 3213 3211 3210 3209 3208 3207 3206 3204 3203 3202 3201 3200 3199 3197 3196 3195 3194 3193 3192 3191 3190 3189 3187 3186 3185 3183 3182
3241 3241 3240 3240 3240 3240 3240 3240 3240 3240 3240 3239 3239 3239 3239 3239 3238 3238 3238 3238 3238 3237 3237 3236 3236 3235 3235 3234 3233 3233 3232 3230 3229 3228 3227 3226 3225 3224 3223 3222 3220 3219 3218 3217 3216 3215 3213 3212 3211 3210 3208 3207 3207 3206 3205 3204 3202 3201 3200 3199 3198 3197 3196 3195 3194 3192 3191 3191 3190 3189 3187 3186 3185 3184
3239 3239 3239 3239 3239 3239 3239 3239 3238 3238 3238 3238 3238 3238 3237 3237 3237 3237 3236 3236 3236 3236 3236 3235 3235 3234 3233 3233 3232 3231 3230 3229 3228 3227 3226 3225 3224 3223 3222 3221 3219 3218 3217 3216 3215 3214 3213 3211 3210 3209 3208 3207 3206 3205 3205 3204 3202 3201 3201 3199 3198 3197 3196 3195 3194 3193 3192 3191 3190 3189 3188 3187 3186 3185
3238 3238 3238 3238 3238 3238 3237 3237 3237 3237 3237 3237 3237 3236 3236 3236 3235 3235 3235 3235 3235 3235 3234 3234 3234 3233 3232 3231 3230 3229 3229 3228 3228 3227 3225 3224 3223 3222 3222 3221 3219 3218 3217 3216 3214 3213 3212 3210 3209 3208 3208 3206 3206 3205 3204 3203 3202 3201 3201 3200 3199 3197 3196 3195 3194 3193 3192 3191 3190 3189 3189 3188 3187 3186
3236 3236 3236 3236 3236 3236 3236 3236 3235 3235 3235 3235 3235 3235 3234 3234 3234 3234 3233 3233 3233 3233 3233 3232 3232 3231 3231 3230 3229 3228 3227 3227 3226 3225 3224 3223 3222 3221 3221 3220 3218 3217 3216 3215 3213 3212 3211 3209 3208 3208 3207 3206 3205 3204 3203 3203 3202 3201 3200 3199 3198 3197 3196 3195 3194 3193 3192 3191 3190 3189 3188 3188 3187 3186
3234 3234 3234 3234 3234 3234 3234 3234 3234 3234 3234 3233 3233 3233 3233 3232 3232 3232 3232 3231 3231 3231 3231 3230 3230 3230 3229 3228 3228 3227 3226 3226 3225 3224 3223 3222 3221 3220 3219 3219 3218 3216 3215 3214 3212 3211 3210 3208 3207 3206 3206 3205 3204 3203 3203 3202 3201 3201 3200 3199 3198 3198 3197 3195 3194 3193 3192 3191 3190 3189 3188 3187 3187 3186
3232 3232 3232 3232 3232 3232 3232 3232 3231 3231 3231 3231 3231 3231 3231 3230 3230 3230 3230 3230 3229 3229 3229 3229 3228 3228 3227 3227 3226 3225 3225 3224 3223 3223 3222 3221 3220 3219 3218 3218 3217 3215 3214 3213 3212 3210 3209 3208 3207 3206 3205 3204 3203 3203 3202 3201 3201 3200 3200 3199 3198 3198 3197 3195 3194 3193 3192 3191 3190 3189 3188 3186 3186 3185
3230 3230 3230 3230 3230 3230 3229 3229 3229 3229 3229 3229 3229 3229 3229 3228 3228 3228 3228 3228 3228 3227 3227 3227 3227 3226 3226 3225 3224 3224 3223 3223 3222 3221 3220 3219 3219 3218 3217 3216 3216 3215 3213 3212 3211 3210 3208 3207 3206 3205 3204 3203 3203 3202 3201 3201 3201 3200 3200 3199 3198 3197 3196 3195 3194 3193 3192 3191 3190 3189 3188 3186 3185 3184
3228 3228 3228 3228 3227 3227 3227 3227 3227 3227 3227 3227 3227 3226 3226 3226 3226 3226 3226 3226 3226 3226 3225 3225 3225 3224 3224 3223 3222 3222 3221 3221 3220 3219 3218 3218 3217 3217 3216 3216 3215 3214 3213 3212 3210 3209 3208 3206 3205 3204 3204 3203 3202 3202 3201 3201 3200 3200 3199 3199 3198 3197 3196 3195 3194 3193 3192 3191 3190 3189 3188 3186 3185 3183
3226 3225 3225 3225 3224 3224 3224 3224 3224 3224 3224 3224 3224 3224 3224 3224 3224 3224 3224 3224 3224 3223 3223 3223 3222 3222 3222 3221 3220 3220 3219 3219 3218 3218 3217 3216 3215 3215 3214 3214 3214 3213 3212 3211 3210 3208 3207 3206 3205 3204 3203 3203 3202 3201 3201 3200 3200 3199 3198 3198 3197 3196 3195 3195 3194 3193 3192 3191 3191 3189 3188 3186 3184 3183
3223 3223 3223 3222 3222 3221 3221 3221 3221 3221 3221 3221 3221 3221 3221 3221 3221 3221 3221 3221 3221 3221 3221 3220 3220 3220 3220 3219 3218 3217 3217 3217 3216 3216 3215 3214 3213 3213 3212 3212 3212 3211 3210 3209 3209 3208 3206 3205 3204 3204 3203 3202 3202 3201 3200 3200 3199 3198 3197 3197 3196 3195 3194 3194 3193 3192 3192 3191 3190 3189 3187 3186 3184 3183
3220 3220 3220 3219 3219 3219 3218 3219 3218 3218 3218 3218 3218 3218 3218 3218 3218 3218 3219 3219 3218 3218 3218 3218 3218 3217 3217 3217 3216 3215 3215 3214 3214 3214 3213 3213 3212 3211 3210 3210 3210 3209 3208 3208 3208 3207 3206 3204 3204 3203 3202 3201 3201 3200 3199 3199 3198 3198 3197 3196 3195 3194 3193 3193 3192 3191 3191 3190 3189 3188 3186 3185 3184 3182
3217 3216 3216 3216 3216 3215 3215 3215 3215 3215 3215 3215 3215 3215 3215 3216 3216 3216 3216 3216 3216 3216 3216 3215 3215 3215 3214 3214 3214 3213 3212 3212 3212 3211 3211 3211 3210 3209 3208 3208 3207 3207 3207 3206 3206 3206 3205 3203 3203 3202 3201 3200 3200 3199 3198 3198 3197 3197 3196 3195 3194 3193 3192 3191 3190 3190 3189 3189 3188 3187 3185 3183 3182 3182
3213 3212 3212 3211 3211 3211 3211 3211 3212 3211 3212 3212 3212 3212 3212 3212 3212 3212 3213 3213 3213 3213 3212 3212 3212 3211 3211 3211 3211 3210 3210 3209 3209 3209 3209 3208 3208 3207 3206 3206 3205 3205 3205 3205 3204 3204 3204 3202 3202 3201 3200 3199 3198 3197 3196 3196 3195 3195 3194 3193 3192 3192 3191 3190 3189 3188 3187 3186 3186 3185 3184 3182 3181 3180
3209 3208 3208 3207 3207 3207 3208 3209 3209 3209 3209 3209 3209 3209 3209 3209 3209 3209 3209 3209 3209 3209 3209 3209 3208 3208 3208 3208 3208 3207 3207 3207 3206 3206 3206 3206 3206 3205 3204 3203 3203 3203 3203 3203 3203 3203 3202 3201 3200 3200 3198 3197 3197 3196 3195 3194 3193 3192 3192 3191 3190 3190 3189 3188 3187 3186 3185 3184 3184 3183 3182 3181 3179 3178
3204 3204 3203 3202 3202 3203 3204 3204 3205 3206 3206 3206 3205 3205 3205 3205 3205 3206 3206 3206 3206 3206 3205 3205 3205 3205 3205 3205 3204 3204 3204 3203 3203 3203 3203 3203 3203 3202 3202 3201 3201 3201 3202 3201 3201 3201 3201 3200 3199 3198 3197 3196 3195 3195 3194 3193 3192 3191 3190 3189 3188 3188 3187 3186 3185 3184 3183 3182 3181 3181 3180 3179 3178 3176
3198 3198 3198 3197 3197 3197 3197 3198 3199 3200 3201 3201 3201 3201 3202 3202 3202 3202 3202 3203 3202 3202 3202 3202 3202 3202 3202 3201 3201 3201 3201 3200 3200 3200 3200 3200 3200 3199 3199 3199 3199 3199 3199 3199 3199 3199 3199 3199 3198 3197 3196 3195 3194 3193 3193 3192 3191 3190 3189 3188 3187 3186 3185 3184 3183 3182 3181 3180 3179 3179 3178 3177 3176 3175
3193 3193 3192 3191 3191 3190 3190 3191 3192 3193 3195 3196 3197 3197 3198 3198 3198 3199 3199 3199 3199 3199 3199 3199 3198 3198 3198 3198 3198 3198 3197 3196 3196 3196 3196 3196 3197 3196 3196 3196 3196 3197 3197 3197 3197 3197 3196 3196 3196 3195 3194 3193 3192 3191 3190 3189 3189 3188 3187 3186 3185 3184 3182 3181 3180 3179 3178 3177 3176 3176 3175 3175 3174 3173
3188 3187 3186 3185 3184 3184 3184 3185 3185 3186 3188 3190 3191 3192 3194 3195 3195 3196 3196 3196 3196 3195 3195 3195 3194 3194 3194 3194 3193 3194 3193 3193 3193 3192 3192 3193 3193 3193 3193 3193 3194 3194 3195 3194 3194 3194 3194 3193 3192 3192 3191 3191 3190 3189 3188 3187 3186 3185 3185 3184 3183 3182 3181 3179 3178 3177 3176 3174 3173 3173 3172 3172 3171 3170
3183 3181 3180 3179 3179 3180 3180 3179 3181 3182 3184 3186 3186 3188 3190 3191 3192 3193 3193 3192 3191 3190 3190 3189 3189 3189 3189 3189 3189 3189 3189 3189 3189 3189 3189 3189 3190 3190 3190 3190 3191 3192 3191 3191 3191 3191 3191 3190 3190 3189 3188 3188 3187 3187 3186 3184 3183 3182 3182 3181 3180 3179 3178 3177 3176 3175 3173 3172 3171 3170 3169 3169 3168 3167
3179 3177 3176 3175 3175 3175 3175 3176 3178 3181 3182 3183 3184 3185 3186 3187 3188 3188 3188 3187 3186 3186 3185 3185 3184 3185 3185 3184 3184 3185 3186 3186 3186 3186 3186 3186 3187 3187 3187 3188 3188 3188 3188 3188 3188 3188 3188 3187 3187 3187 3186 3185 3184 3184 3183 3182 3180 3179 3178 3178 3177 3176 3175 3174 3173 3172 3171 3169 3168 3167 3166 3165 3164 3163
3177 3175 3174 3173 3173 3172 3172 3173 3175 3177 3178 3179 3180 3180 3181 3182 3182 3183 3183 3183 3183 3182 3181 3180 3181 3181 3180 3180 3181 3182 3182 3182 3182 3182 3182 3183 3184 3184 3185 3185 3185 3185 3185 3185 3185 3185 3184 3184 3183 3183 3182 3182 3181 3180 3179 3179 3178 3176 3175 3174 3173 3173 3172 3171 3170 3169 3167 3166 3165 3164 3163 3162 3161 3160
3174 3173 3172 3171 3171 3170 3169 3169 3172 3172 3172 3173 3175 3175 3175 3176 3177 3178 3179 3179 3179 3179 3177 3176 3177 3177 3176 3176 3177 3178 3178 3178 3177 3178 3178 3179 3180 3181 3181 3182 3182 3182 3182 3182 3181 3181 3181 3180 3180 3179 3178 3178 3177 3176 3175 3175 3174 3173 3172 3171 3170 3169 3168 3167 3166 3165 3164 3163 3161 3160 3158 3158 3157 3156
3171 3170 3170 3169 3169 3169 3169 3169 3169 3170 3170 3171 3172 3172 3172 3172 3173 3175 3175 3175 3176 3176 3174 3173 3173 3174 3173 3173 3174 3175 3175 3174 3174 3174 3175 3175 3176 3178 3178 3178 3178 3178 3178 3178 3178 3178 3177 3177 3176 3175 3174 3173 3173 3172 3171 3170 3169 3168 3168 3167 3166 3165 3164 3164 3162 3161 3160 3159 3157 3156 3154 3153 3152 3151
3167 3167 3167 3167 3167 3168 3168 3168 3168 3168 3168 3169 3169 3169 3170 3170 3170 3171 3171 3171 3172 3172 3171 3170 3170 3169 3170 3170 3170 3171 3171 3171 3171 3172 3172 3172 3173 3174 3174 3174 3175 3175 3175 3175 3174 3174 3174 3173 3172 3172 3171 3169 3168 3167 3167 3166 3164 3163 3163 3162 3161 3160 3160 3159 3158 3157 3156 3155 3153 3152 3150 3149 3147 3146
3164 3164 3164 3164 3165 3166 3166 3166 3166 3166 3166 3166 3166 3167 3167 3167 3167 3168 3168 3168 3168 3168 3167 3168 3167 3166 3167 3167 3168 3168 3168 3168 3169 3169 3169 3169 3170 3170 3171 3171 3171 3171 3171 3171 3170 3170 3170 3169 3169 3168 3166 3165 3164 3163 3162 3161 3160 3159 3158 3157 3156 3155 3154 3154 3153 3152 3151 3150 3149 3148 3146 3144 3143 3142
3161 3161 3161 3161 3162 3163 3164 3164 3164 3164 3164 3164 3164 3164 3164 3164 3164 3164 3165 3165 3164 3164 3164 3164 3164 3164 3164 3165 3165 3165 3166 3166 3166 3167 3167 3167 3167 3167 3167 3168 3168 3168 3168 3167 3167 3166 3166 3165 3164 3163 3162 3161 3160 3159 3158 3156 3155 3154 3153 3152 3151 3150 3149 3149 3147 3146 3145 3144 3144 3143 3142 3140 3138 3137
3160 3159 3158 3159 3159 3159 3160 3160 3161 3161 3161 3161 3161 3161 3161 3161 3160 3161 3161 3161 3161 3161 3161 3160 3160 3161 3161 3162 3162 3163 3163 3163 3163 3163 3164 3164 3164 3163 3163 3163 3163 3163 3163 3163 3163 3162 3162 3161 3160 3159 3157 3156 3155 3155 3154 3152 3150 3149 3148 3147 3147 3146 3145 3144 3142 3141 3140 3139 3138 3137 3137 3135 3132 3130
3158 3157 3157 3156 3157 3156 3156 3157 3157 3157 3157 3157 3157 3157 3157 3157 3157 3157 3157 3157 3158 3158 3157 3157 3157 3158 3158 3159 3159 3160 3160 3160 3160 3160 3160 3160 3160 3159 3159 3159 3159 3159 3159 3158 3158 3158 3158 3157 3156 3155 3154 3153 3151 3150 3149 3147 3145 3144 3144 3143 3142 3141 3140 3139 3137 3136 3134 3133 3132 3131 3130 3130 3128 3126
3157 3156 3155 3155 3154 3154 3154 3154 3154 3154 3154 3154 3154 3154 3154 3154 3153 3153 3154 3154 3154 3154 3154 3154 3155 3155 3155 3156 3156 3156 3157 3157 3157 3157 3156 3156 3156 3155 3155 3155 3155 3154 3154 3154 3154 3153 3153 3152 3152 3151 3150 3149 3148 3147 3145 3143 3141 3139 3139 3138 3137 3135 3134 3133 3132 3131 3129 3128 3126 3125 3124 3124 3123 3121
3154 3154 3154 3153 3153 3153 3152 3152 3152 3152 3152 3152 3152 3152 3151 3151 3150 3151 3151 3151 3151 3151 3152 3152 3152 3152 3152 3153 3153 3153 3154 3154 3153 3153 3153 3152 3152 3151 3151 3151 3150 3150 3150 3149 3149 3149 3148 3147 3147 3146 3145 3145 3144 3143 3142 3140 3137 3134 3133 3133 3132 3130 3129 3128 3127 3126 3124 3123 3121 3120 3118 3117 3116 3115
3151 3151 3151 3151 3150 3150 3150 3150 3150 3150 3149 3149 3149 3149 3149 3149 3148 3148 3148 3148 3148 3148 3148 3148 3148 3149 3149 3150 3150 3150 3150 3150 3150 3149 3149 3149 3148 3148 3147 3147 3146 3146 3145 3144 3144 3143 3143 3142 3141 3140 3139 3139 3138 3138 3137 3136 3134 3131 3128 3127 3126 3125 3124 3122 3121 3120 3119 3117 3116 3114 3112 3111 3109 3108
3148 3148 3147 3147 3147 3147 3147 3147 3147 3147 3147 3146 3146 3146 3145 3145 3145 3145 3145 3145 3145 3144 3144 3144 3145 3145 3146 3146 3146 3146 3146 3146 3146 3145 3145 3144 3144 3143 3143 3142 3142 3141 3140 3139 3138 3138 3137 3136 3135 3135 3134 3133 3132 3131 3130 3130 3128 3127 3124 3122 3120 3118 3117 3116 3114 3113 3111 3110 3109 3108 3106 3105 3103 3101
3145 3145 3144 3144 3144 3144 3144 3144 3144 3144 3143 3143 3143 3143 3142 3142 3142 3142 3142 3142 3142 3142 3141 3141 3141 3142 3142 3142 3142 3142 3142 3142 3142 3141 3141 3140 3140 3139 3139 3138 3137 3137 3136 3135 3134 3133 3132 3131 3130 3129 3128 3127 3126 3125 3124 3123 3122 3121 3119 3117 3114 3112 3110 3109 3107 3105 3104 3103 3102 3101 3100 3099 3097 3095
3142 3142 3141 3141 3141 3141 3141 3141 3140 3140 3140 3140 3139 3139 3139 3139 3139 3139 3139 3139 3139 3139 3139 3138 3138 3138 3138 3138 3138 3138 3138 3138 3137 3137 3137 3136 3136 3135 3134 3133 3133 3132 3131 3130 3129 3127 3126 3125 3124 3123 3122 3121 3120 3119 3118 3116 3115 3114 3113 3111 3109 3107 3105 3103 3101 3099 3098 3096 3094 3093 3092 3091 3089 3088
3139 3138 3138 3138 3138 3138 3138 3138 3137 3137 3137 3137 3137 3136 3136 3136 3136 3136 3136 3136 3136 3136 3135 3135 3135 3135 3134 3134 3134 3134 3134 3133 3133 3133 3132 3132 3131 3130 3129 3128 3127 3126 3125 3124 3123 3122 3121 3120 3119 3117 3116 3115 3114 3113 3111 3110 3109 3108 3107 3105 3104 3102 3099 3097 3095 3093 3092 3090 3088 3086 3084 3083 3081 3079
3136 3135 3135 3135 3134 3134 3134 3134 3134 3134 3134 3134 3133 3133 3133 3133 3133 3132 3132 3132 3132 3132 3132 3131 3131 3131 3130 3130 3130 3129 3129 3129 3129 3128 3127 3126 3126 3125 3124 3123 3122 3121 3120 3119 3118 3117 3115 3114 3113 3111 3110 3109 3108 3107 3105 3104 3103 3101 3100 3099 3097 3095 3093 3091 3089 3087 3085 3084 3083 3081 3079 3077 3074 3072
3133 3132 3132 3132 3131 3131 3131 3131 3131 3130 3130 3130 3130 3130 3129 3129 3129 3129 3128 3128 3128 3128 3128 3127 3127 3126 3126 3126 3125 3125 3125 3124 3124 3123 3122 3122 3121 3120 3119 3118 3117 3116 3115 3114 3112 3111 3110 3109 3108 3106 3105 3104 3103 3101 3100 3098 3096 3095 3093 3092 3090 3089 3087 3086 3084 3082 3079 3078 3076 3074 3072 3070 3068 3065
3129 3129 3129 3128 3128 3128 3127 3127 3127 3127 3126 3126 3126 3126 3125 3125 3125 3125 3124 3124 3124 3124 3123 3123 3122 3122 3121 3121 3121 3120 3120 3119 3119 3118 3117 3116 3116 3115 3114 3113 3111 3110 3109 3108 3107 3106 3104 3103 3102 3101 3099 3098 3097 3095 3094 3092 3090 3089 3087 3086 3084 3083 3081 3080 3078 3076 3074 3072 3070 3068 3066 3064 3062 3060